Regional Weather Roundup
Issued by NWS

Home | Current Version | Previous Version | Graphics & Text | Print | Product List | Glossary On
Versions: 1 2 3 4 5 6 7 8 9 10 11 12 13 14 15 16 17 18 19 20 21 22 23 24 25 26 27 28 29 30 31 32 33 34 35 36 37 38 39 40 41 42 43 44 45 46 47 48 49 50
000
ASUS43 KIND 181309
RWRIN

WEATHER ROUNDUP FOR INDIANA
NATIONAL WEATHER SERVICE INDIANAPOLIS IN
900 AM EDT SAT APR 18 2015

NOTE: "FAIR" INDICATES FEW OR NO CLOUDS BELOW 12,000 FEET WITH NO
SIGNIFICANT WEATHER AND/OR OBSTRUCTIONS TO VISIBILITY.

* - STATION DOES NOT REPORT WEATHER SUCH AS PRECIPITATION OR FOG.

+ - STATION NOT QUALITY CONTROLLED BY THE NATIONAL WEATHER SERVICE.
    USE DATA WITH CAUTION...ESPECIALLY DEWPOINT AND RELATIVE
    HUMIDITY OBSERVATIONS.

INZ001>003-010>013-019-020-181400-
NORTHWEST INDIANA

CITY           SKY/WX    TMP DP  RH WIND       PRES   REMARKS
GARY /AIRPORT/ MOSUNNY   63  45  51 CALM      30.05S
KNOX *+        SUNNY     54  39  58 CALM      30.04S
MICHIGAN CITY+ SUNNY     63  43  48 CALM      30.05S
MONTICELLO +   SUNNY     59  54  85 CALM      30.04F
RENSSELAER +   MOSUNNY   59  52  77 CALM      30.05S
VALPARAISO     PTSUNNY   65  51  60 W7        30.05S

$$

LMZ046-743>745-181400-
SOUTHERN LAKE MICHIGAN

STATION/POSITION TIME  TEMP WIND        PRES
                       AIR  DIR/SP/G
                 (UTC) (F)  (DEG/KT/KT) (MB)
BURNS HARBOR     1300   62  220/  4/  5 1017.9S
MICHIGAN CITY    1300   60  230/  3/  3   N/A
4NW MICH CITY    1300   51                N/A

$$

INZ004-005-014>016-021>024-181400-
NORTH CENTRAL INDIANA

CITY           SKY/WX    TMP DP  RH WIND       PRES   REMARKS
GOSHEN         SUNNY     59  49  69 CALM      30.05S
LOGANSPORT +   SUNNY     57  50  77 CALM      30.06S
PERU/GRISSOM   SUNNY     61  49  65 SW2       30.05S
ROCHESTER +    SUNNY     61  52  72 CALM      30.06S
SOUTH BEND     SUNNY     62  46  55 CALM      30.06S
WARSAW +       SUNNY     59  48  67 CALM      30.05F

$$

INZ006>009-017-018-025>027-181400-
NORTHEAST INDIANA

CITY           SKY/WX    TMP DP  RH WIND       PRES   REMARKS
ANGOLA *+      SUNNY     64  48  55 VRB3      30.05F
AUBURN +       SUNNY     61  46  59 CALM      30.06F
FORT WAYNE     MOSUNNY   61  49  64 CALM      30.06F
HUNTINGTON +   SUNNY     59  44  56 CALM      30.05F

$$

INZ028-029-035-036-043>045-051>053-181400-
WEST CENTRAL INDIANA

CITY           SKY/WX    TMP DP  RH WIND       PRES   REMARKS
CRAWFORDSVL +  PTSUNNY   58  45  62 CALM      30.06S
GREENCASTLE +  MOSUNNY   59  45  58 CALM      30.06F
LAFAYETTE      MOSUNNY   56  51  84 CALM      30.05S
TERRE HAUTE    MOSUNNY   59  52  77 CALM      30.05R

$$

INZ030>032-037>040-046>048-054>057-064-065-181400-
CENTRAL INDIANA

CITY           SKY/WX    TMP DP  RH WIND       PRES   REMARKS
ANDERSON       SUNNY     57  46  67 CALM      30.07
CP ATTERBURY + SUNNY     54  48  82 CALM      30.08R
FISHERS *+     MOSUNNY   57  52  82 CALM      30.07R
FRANKFORT +    MOSUNNY   59  51  73 CALM      30.08R
GREENWOOD *+   SUNNY     63  45  51 CALM      30.07R
INDIANAPOLIS   MOSUNNY   61  48  62 CALM      30.05S
-EAGLE CREEK   MOSUNNY   59  50  72 CALM      30.06R
KOKOMO *+      SUNNY     59  48  67 CALM      30.06S
MARION +       SUNNY     57  47  70 CALM      30.06F
MT COMFORT *+  SUNNY     59  46  63 CALM      30.07S
SHELBYVILLE    SUNNY     62  45  53 SE5       30.06R
ZIONSVILLE +   MOSUNNY   59  50  71 CALM      30.07S

$$

INZ033-034-041-042-049-050-058-059-181400-
EAST CENTRAL INDIANA

CITY           SKY/WX    TMP DP  RH WIND       PRES   REMARKS
MUNCIE         SUNNY     60  48  64 CALM      30.06S

$$

INZ060-061-067>069-081>083-085>088-181400-
SOUTHWEST INDIANA

CITY           SKY/WX    TMP DP  RH WIND       PRES   REMARKS
EVANSVILLE     CLOUDY    60  56  86 CALM      30.03S FOG
HUNTINGBURG *+ CLOUDY    57  54  88 CALM      30.03F
WASHINGTON +   PTSUNNY   58  54  87 CALM      30.03F

$$

INZ062-063-066-070>080-084-089>092-181400-
SOUTH CENTRAL AND SOUTHEAST INDIANA

CITY           SKY/WX    TMP DP  RH WIND       PRES   REMARKS
BEDFORD +      MOSUNNY   59  52  77 CALM      30.05S
BLOOMINGTON    SUNNY     59  53  80 CALM      30.05S
MADISON *+     SUNNY     64  46  52 CALM      30.07S
NORTH VERNON + SUNNY     59  59 100 NE3       30.07R

$$



USA.gov is the U.S. government's official web portal to all federal, state and local government web resources and services.